Weather History for Peru, IN

Change the Weather History Date:

Monday, October 31, 2011

  Actual Average Record
Temperature  
Mean Temperature 46 °F -  
Max Temperature 56 °F 55 °F 75 °F (2003)
Min Temperature 37 °F 38 °F 28 °F (1996)
Degree Days  
Heating Degree Days 19    
Moisture  
Dew Point 36 °F    
Average Humidity 71    
Maximum Humidity 100    
Minimum Humidity 29    
Precipitation  
Precipitation 0.02 in - - ()
Sea Level Pressure  
Sea Level Pressure 30.05 in    
Wind  
Wind Speed 8 mph (SW)    
Max Wind Speed 12 mph    
Max Gust Speed -    
Visibility 10 miles    
Events Rain    
Averages and records for this station are not official NWS values.
T = Trace of Precipitation, MM = Missing Value Source: NWS Daily Summary

Daily Weather History Graph

Daily Weather History Graph

Search for Another Location

Airport:

Trip Planner

Search our weather history database for the weather conditions in past years. The results will help you decide how hot, cold, wet, or windy it might be!

Date:

Astronomy

Oct. 31, 2011 Rise Set
Actual Time 8:13 AM EDT 6:42 PM EDT
Civil Twilight 7:45 AM EDT 7:10 PM EDT
Nautical Twilight 7:12 AM EDT 7:43 PM EDT
Astronomical Twilight 6:40 AM EDT 8:14 PM EDT
Moon 1:20 PM EDT (10/31) 11:17 PM EDT (10/31)
Length of Visible Light 11h 25m
Length of Day
10h 29m
Waxing Crescent, 29% of the Moon is Illuminated
Oct 31
Waxing Crescent
Nov 2
First Quarter
Nov 10
Full
Nov 18
Last Quarter
Nov 25
New

Hourly Weather History & Observations

Time (EDT) Temp. Windchill Dew Point Humidity Pressure Visibility Wind Dir Wind Speed Gust Speed Precip Events Conditions
12:55 AM 48.6 °F - 30.7 °F 50% 30.02 in 10.0 mi SSE 10.4 mph - N/A   Overcast
1:55 AM 48.7 °F - 28.9 °F 46% 30.01 in 10.0 mi South 10.4 mph - N/A   Overcast
2:55 AM 48.6 °F - 28.0 °F 45% 30.01 in 10.0 mi South 10.4 mph - N/A   Mostly Cloudy
3:38 AM 48.2 °F - 30.2 °F 50% 30.01 in 10.0 mi SSW 11.5 mph - N/A   Light Drizzle
3:48 AM 46.4 °F 41.9 °F 33.8 °F 62% 30.01 in 10.0 mi SSW 9.2 mph - N/A   Mostly Cloudy
3:55 AM 47.1 °F - 34.2 °F 61% 30.01 in 10.0 mi SSW 8.1 mph - 0.00 in   Mostly Cloudy
4:08 AM 46.4 °F 41.9 °F 35.6 °F 66% 30.01 in 10.0 mi SW 9.2 mph - N/A Rain Light Rain
4:55 AM 44.2 °F 40.3 °F 44.2 °F 100% 29.99 in 10.0 mi South 6.9 mph - 0.02 in Rain Light Rain
5:10 AM 44.6 °F 39.7 °F 44.6 °F 100% 29.97 in 10.0 mi ESE 9.2 mph - N/A   Mostly Cloudy
5:55 AM 42.6 °F 39.9 °F 42.6 °F 100% 30.00 in 10.0 mi SSW 4.6 mph - 0.00 in   Mostly Cloudy
6:55 AM 40.8 °F 37.8 °F 40.8 °F 100% 30.01 in 10.0 mi SSW 4.6 mph - N/A   Mostly Cloudy
7:55 AM 40.3 °F 36.3 °F 40.3 °F 100% 30.01 in 10.0 mi South 5.8 mph - N/A   Mostly Cloudy
8:55 AM 41.2 °F 37.3 °F 41.2 °F 100% 30.04 in 10.0 mi SSW 5.8 mph - N/A   Overcast
9:55 AM 43.9 °F 40.5 °F 43.9 °F 100% 30.05 in 10.0 mi West 5.8 mph - N/A   Partly Cloudy
10:30 AM 46.4 °F 42.4 °F 46.4 °F 100% 30.03 in 10.0 mi West 8.1 mph - N/A   Scattered Clouds
10:55 AM 46.4 °F 43.5 °F 46.4 °F 100% 30.05 in 10.0 mi West 5.8 mph - N/A   Partly Cloudy
11:55 AM 49.5 °F - 49.5 °F 100% 30.06 in 10.0 mi West 6.9 mph - N/A   Scattered Clouds
12:55 PM 53.1 °F - 47.8 °F 82% 30.06 in 10.0 mi West 4.6 mph - N/A   Clear
1:55 PM 55.2 °F - 34.0 °F 45% 30.05 in 10.0 mi West 6.9 mph - N/A   Scattered Clouds
2:55 PM 55.0 °F - 26.4 °F 33% 30.05 in 10.0 mi West 8.1 mph - N/A   Clear
3:55 PM 55.0 °F - 23.9 °F 30% 30.06 in 10.0 mi West 9.2 mph - N/A   Partly Cloudy
4:55 PM 55.9 °F - 23.7 °F 29% 30.06 in 10.0 mi West 8.1 mph - N/A   Partly Cloudy
5:55 PM 53.8 °F - 25.7 °F 34% 30.08 in 10.0 mi West 3.5 mph - N/A   Clear
6:55 PM 50.0 °F - 27.9 °F 42% 30.11 in 10.0 mi WNW 4.6 mph - N/A   Clear
7:55 PM 45.7 °F - 30.9 °F 56% 30.13 in 10.0 mi Calm Calm - N/A   Clear
8:55 PM 43.3 °F - 32.9 °F 67% 30.15 in 10.0 mi Calm Calm - N/A   Clear
9:55 PM 41.0 °F - 34.0 °F 76% 30.16 in 10.0 mi Calm Calm - N/A   Clear
10:55 PM 37.0 °F 34.5 °F 36.7 °F 99% 30.18 in 10.0 mi SW 3.5 mph - N/A   Clear
11:55 PM 37.2 °F - 37.0 °F 99% 30.18 in 10.0 mi Calm Calm - N/A   Clear